Volver al catálogo

ONEWEB-0092

ActivoComunicacionesPO
NORAD 45437·PAYLOAD·🇬🇧 United Kingdom

Lanzado Mar 21, 2020 desde Baikonur Cosmodrome

Loading…

Próximos Pases (próximas 24 horas)

TLE

ActualizadoSource: CelesTrak SupGP

Época: Sep 14, 2026, 21:18 UTC

1 45437C 20020P   26257.88768935 -.00002038  00000+0 -57574-2 0  2574
2 45437  87.8986   3.2313 0001938  95.5000 307.4578 13.11423477    11

Sigue ONEWEB-0092 en tiempo real con AllMySat

Download on the App Store